Sacramento, CA
on Saturday, October 7, 2017

Saturday
Previous Day Next Day
Daily Summary
 ActualAverageRecord
Temperature
Mean Temperature - -  
Max Temperature 86 °F 81 °F 97 °F (1980)
Min Temperature 49 °F 52 °F 41 °F (2007)
Degree Days
Heating Degree Days 0    
Cooling Degree Days 3    
Growing Degree Days16 (Base - )  
Moisture
Dew Point 43 °F   
Average Humidity 49    
Maximum Humidity 80    
Minimum Humidity 17    
Precipitation
Precipitation 0.00 in 0.01 in 0.51 in (1981)
Month to date precipitation 0.00 0.11  
Year to date precipitation 23.63 12.35  
Wind
Wind Speed 2 mph   
Max Wind Speed 8 mph   
Max Gust Speed 11 mph   
Visibility 10 miles   
Events     

Key: T is trace of precipitation, MM is missing value
Source: NWS Daily Summary
Time(PDT)TemperatureDew PointHumidity Pressure Visibility Wind DirectionWind SpeedGust SpeedPrecipitationEvents Conditions
12:53 AM 61.0 °F 42.1 °F 50% 29.94 in 10.0 miles SE 3.5 mph - N/A   Clear
1:53 AM 55.0 °F 45.0 °F 69% 29.93 in 10.0 miles ESE 3.5 mph - N/A   Clear
2:53 AM 53.1 °F 44.1 °F 71% 29.93 in 10.0 miles Calm Calm - N/A   Clear
3:53 AM 52.0 °F 44.1 °F 74% 29.93 in 10.0 miles Calm Calm - N/A   Clear
4:53 AM 52.0 °F 44.1 °F 74% 29.93 in 10.0 miles Calm Calm - N/A   Clear
5:53 AM 51.1 °F 44.1 °F 77% 29.93 in 10.0 miles Calm Calm - N/A   Clear
6:53 AM 50.0 °F 44.1 °F 80% 29.93 in 10.0 miles Calm Calm - N/A   Clear
7:27 AM 48.9 °F 45.0 °F 86% 29.93 in 10.0 miles Calm Calm - N/A   Clear
7:53 AM 52.0 °F 44.1 °F 74% 29.93 in 9.0 miles Calm Calm - N/A   Clear
8:53 AM 62.1 °F 45.0 °F 53% 29.94 in 10.0 miles Calm Calm - N/A   Clear
9:53 AM 69.1 °F 43.0 °F 39% 29.95 in 10.0 miles North 3.5 mph - N/A   Clear
10:53 AM 73.0 °F 43.0 °F 34% 29.94 in 10.0 miles West 3.5 mph - N/A   Clear
11:53 AM 77.0 °F 41.0 °F 28% 29.93 in 10.0 miles North 5.8 mph - N/A   Clear
12:53 PM 80.1 °F 36.0 °F 20% 29.90 in 10.0 miles Variable 3.5 mph - N/A   Clear
1:53 PM 81.0 °F 36.0 °F 20% 29.86 in 10.0 miles Calm Calm - N/A   Clear
2:53 PM 84.9 °F 37.0 °F 18% 29.83 in 10.0 miles West 6.9 mph - N/A   Clear
3:53 PM 84.0 °F 36.0 °F 18% 29.81 in 10.0 miles WSW 3.5 mph - N/A   Clear
4:53 PM 84.9 °F 37.9 °F 19% 29.79 in 10.0 miles South 3.5 mph - N/A   Clear
5:53 PM 82.9 °F 43.0 °F 24% 29.77 in 10.0 miles SSW 4.6 mph - N/A   Clear
6:53 PM 73.9 °F 48.0 °F 40% 29.76 in 10.0 miles South 4.6 mph - N/A   Clear
7:53 PM 71.1 °F 46.9 °F 42% 29.76 in 10.0 miles South 4.6 mph - N/A   Clear
8:53 PM 68.0 °F 48.0 °F 49% 29.77 in 10.0 miles Calm Calm - N/A   Clear
9:53 PM 66.0 °F 48.9 °F 54% 29.77 in 10.0 miles South 4.6 mph - N/A   Clear
10:53 PM 64.9 °F 48.9 °F 56% 29.76 in 10.0 miles South 4.6 mph - N/A   Clear
11:53 PM 62.1 °F 50.0 °F 65% 29.77 in 10.0 miles South 3.5 mph - N/A   Clear

Astronomy

Sunrise: 07:07 AM (PDT) Moon Rise: 08:22 PM (PDT) 10 / 7
Sunset: 06:39 PM (PDT) Moon Set: 09:06 AM (PDT) 10 / 7
Moon Phase
Oct. 07 Oct. 12 Oct. 19 Oct. 27 Nov. 04


Powered by Weather Underground, Inc.